[[{"header":{"parameterUnit":"m.s-1","parameterCategory":1,"la1":30.2991,"la2":30.254,"lo1":-89.0895,"lo2":-89.0444,"dy":0.0017,"dx":0.0017,"nx":28,"ny":28,"refTime":"2024-09-29T03:00:00:Z","depth":0,"parameterNumber":2,"parameterNumberName":"U-component_of_WINDS"},"data":[0,0,0,0,0,0,0,0,0,0,0,0,0,0,0,0,0,0,0,0,0,0,0,0,0,0,0,0,0,0,0,0,0,0,0,0,0,0,0,0,0,0,0,0,0,0,0,0,0,0,0,0,0,0,0,0,0,0,1.4547,1.4548,0,1.4668,1.4669,1.467,1.4725,1.4724,1.4724,1.4724,1.4846,1.4849,1.4852,0,0,0,0,0,0,0,0,0,0,0,0,0,1.4359,1.4362,1.4547,1.4548,1.455,1.4667,1.4669,1.4671,1.4725,1.4724,1.4724,1.4724,1.4844,1.4848,1.4852,0,0,0,0,0,0,0,0,0,0,0,0,0,1.4456,1.4363,1.4546,1.4591,1.4596,1.4667,1.4669,1.4671,1.4725,1.4724,1.4724,1.4724,1.4843,1.4848,1.4853,1.4888,0,0,1.4868,1.4871,0,0,0,0,0,0,0,0,1.4451,1.4463,1.4583,1.4588,1.4594,1.4681,1.4648,1.4744,1.4725,1.4676,1.4724,1.4724,1.4791,1.48,1.4823,1.4894,1.4899,1.4869,1.4872,1.4874,1.4876,0,0,0,0,0,0,0,1.4444,1.4458,1.4594,1.4584,1.4591,1.4604,1.4617,1.4666,1.4733,1.468,1.4684,1.4698,1.4794,1.4818,1.4826,1.4901,1.4869,1.4873,1.4876,1.4878,1.5007,1.5007,0,0,0,0,0,0,1.443,1.4452,1.4591,1.4598,1.452,1.4607,1.4622,1.4653,1.4732,1.4744,1.4698,1.47,1.481,1.482,1.4831,1.4878,1.4874,1.4879,1.4882,1.5006,1.5007,1.5007,0,0,0,0,0,0,1.4426,1.4442,1.4586,1.4526,1.4546,1.4611,1.4645,1.4656,1.468,1.4746,1.4758,1.4711,1.481,1.4824,1.4874,1.4883,1.4881,1.4886,1.5006,1.5006,1.5007,1.4971,0,0,0,0,0,0,1.4421,1.444,1.4455,1.4526,1.4549,1.4627,1.4645,1.4658,1.4689,1.4693,1.4761,1.4773,1.4811,1.4866,1.4879,1.489,1.489,1.5005,1.5006,1.5007,1.4972,1.497,1.4969,0,0,0,0,0,1.4414,1.444,1.4456,1.4472,1.4569,1.4628,1.464,1.4685,1.4689,1.4704,1.4747,1.477,1.4879,1.4871,1.4886,1.4898,1.5005,1.5006,1.5007,1.4972,1.4971,1.4969,0,0,0,0,0,0,1.4367,1.445,1.4468,1.4518,1.4566,1.4637,1.4657,1.4681,1.4728,1.4729,1.4781,1.4796,1.4842,1.4875,1.4863,1.4936,1.4944,1.4948,1.4913,1.4912,1.4911,1.4902,1.4894,0,0,0,0,0,1.4362,1.4404,1.4474,1.4512,1.4534,1.4591,1.4619,1.4649,1.47,1.472,1.4766,1.4813,1.4858,1.4887,1.4932,1.4977,1.4992,1.4992,1.4991,1.499,1.4992,1.5018,1.5019,1.501,1.501,1.501,0,0,1.4354,1.4404,1.4427,1.4503,1.4544,1.4585,1.4608,1.4651,1.4682,1.4726,1.4776,1.4811,1.4868,1.4915,1.4939,1.4944,1.4998,1.4991,1.4989,1.4993,1.5019,1.502,1.5021,1.5011,1.501,1.501,0,0,1.4359,1.4401,1.4437,1.4477,1.4538,1.4576,1.4584,1.4652,1.4677,1.4728,1.4762,1.4799,1.4876,1.4915,1.4945,1.4964,1.4988,1.4977,1.497,1.4995,1.4996,1.4997,1.5004,1.5006,1.498,1.498,1.498,0,1.434,1.4405,1.4452,1.4494,1.4526,1.4568,1.4605,1.4641,1.4712,1.4733,1.4739,1.4836,1.4877,1.4934,1.4939,1.4961,1.4972,1.497,1.4992,1.4994,1.4995,1.5002,1.5005,1.4978,1.4978,1.4978,1.4979,0,1.4379,1.4423,1.4445,1.4514,1.4549,1.4587,1.4639,1.4668,1.4695,1.4732,1.4783,1.4834,1.489,1.4906,1.4932,1.4967,1.4968,1.4982,1.4992,1.4994,1.5001,1.5004,1.4976,1.4976,1.4977,1.4977,0,0,1.4359,1.4454,1.4461,1.4493,1.4563,1.4597,1.4637,1.4693,1.4717,1.4765,1.4799,1.4863,1.4876,1.491,1.4941,1.4962,1.4975,1.4974,1.4976,1.4972,1.5016,1.5005,1.5008,1.499,1.4991,1.4992,1.5011,0,1.4374,1.4448,1.4492,1.4548,1.459,1.463,1.4665,1.4711,1.4746,1.4786,1.4824,1.4869,1.4883,1.4903,1.4927,1.4968,1.4984,1.4967,1.5023,1.5024,1.5008,1.5012,1.5001,1.5017,1.5014,1.5015,1.5015,0,1.4402,1.445,1.451,1.4576,1.4595,1.4625,1.468,1.4717,1.477,1.4794,1.4831,1.4862,1.4905,1.491,1.497,1.4958,1.4983,1.5006,1.5008,1.5015,1.502,1.5019,1.5023,1.5025,1.5021,1.502,1.502,0,1.4381,1.446,1.4507,1.4533,1.4611,1.4631,1.4664,1.4717,1.4747,1.4794,1.4815,1.4866,1.4894,1.4932,1.4976,1.4975,1.5031,1.504,1.5052,1.5051,1.5062,1.5061,1.507,1.5077,1.5077,1.5077,1.5077,0,1.4394,1.4429,1.4499,1.4528,1.4569,1.4618,1.4657,1.4693,1.4739,1.4775,1.4812,1.4845,1.49,1.494,1.4974,1.5018,1.503,1.5051,1.5059,1.5048,1.5045,1.5065,1.5065,1.5078,1.5078,1.5077,1.5077,0,1.4378,1.4426,1.448,1.4549,1.4567,1.4594,1.4652,1.4681,1.4718,1.4763,1.4776,1.4834,1.4882,1.4929,1.4994,1.5017,1.5061,1.5072,1.5043,1.5048,1.5057,1.5056,1.508,1.5086,1.5088,1.5088,1.5088,0,1.4383,1.4411,1.4483,1.451,1.4543,1.4586,1.4618,1.4666,1.4698,1.476,1.4781,1.4832,1.4876,1.495,1.4998,1.5047,1.506,1.5065,1.5068,1.5055,1.5061,1.5059,1.5062,1.5064,1.5064,1.5063,1.5063,0,1.4387,1.4409,1.4454,1.4507,1.4544,1.4587,1.4632,1.4652,1.471,1.4742,1.4793,1.4826,1.4892,1.4942,1.4997,1.503,1.5056,1.5062,1.5067,1.5056,1.5038,1.5048,1.504,1.5061,1.5062,1.5062,1.5062,1.5062,1.4382,1.4409,1.4464,1.4513,1.4552,1.4593,1.4623,1.4664,1.4707,1.4766,1.4791,1.4842,1.4893,1.497,1.5002,1.5042,1.5049,1.5056,1.5058,1.506,1.5057,1.5031,1.5052,1.5052,1.5052,1.5052,1.5053,0,1.4388,1.4426,1.4469,1.4532,1.4569,1.4591,1.4642,1.4672,1.4716,1.4762,1.4804,1.4862,1.491,1.4961,1.5013,1.5034,1.5048,1.5046,1.5045,1.5053,1.5048,1.5039,1.5035,1.5035,1.5035,1.5035,1.5035,1.5035,1.4396,1.4443,1.4472,1.4539,1.4576,1.4626,1.4653,1.4691,1.4728,1.4791,1.4832,1.4865,1.4913,1.4968,1.5013,1.5027,1.5044,1.504,1.5057,1.5052,1.5053,1.5054,1.5045,1.5043,1.5043,1.5058,1.5058,1.5058]},{"header":{"parameterUnit":"m.s-1","parameterCategory":1,"la1":30.2991,"la2":30.254,"lo1":-89.0895,"lo2":-89.0444,"dy":0.0017,"dx":0.0017,"nx":28,"ny":28,"refTime":"2024-09-29T03:00:00:Z","depth":0,"parameterNumber":3,"parameterNumberName":"V-component_of_WINDS"},"data":[0,0,0,0,0,0,0,0,0,0,0,0,0,0,0,0,0,0,0,0,0,0,0,0,0,0,0,0,0,0,0,0,0,0,0,0,0,0,0,0,0,0,0,0,0,0,0,0,0,0,0,0,0,0,0,0,0,0,3.0113,3.0113,0,3.0132,3.0132,3.0133,3.0125,3.0125,3.0125,3.0124,3.0141,3.0142,3.0143,0,0,0,0,0,0,0,0,0,0,0,0,0,3.0067,3.0068,3.0113,3.0113,3.0113,3.0132,3.0132,3.0133,3.0126,3.0125,3.0124,3.0124,3.0141,3.0142,3.0143,0,0,0,0,0,0,0,0,0,0,0,0,0,3.0086,3.0068,3.0113,3.0112,3.0112,3.0132,3.0132,3.0133,3.0126,3.0125,3.0124,3.0124,3.0141,3.0142,3.0143,3.0164,0,0,3.0147,3.0148,0,0,0,0,0,0,0,0,3.0085,3.0088,3.0112,3.0112,3.0112,3.0126,3.0122,3.0143,3.0126,3.012,3.0124,3.0123,3.0137,3.0138,3.0143,3.0165,3.0166,3.0147,3.0148,3.0149,3.0149,0,0,0,0,0,0,0,3.0084,3.0087,3.012,3.0112,3.0113,3.011,3.0112,3.0126,3.0132,3.0121,3.012,3.0123,3.0136,3.0142,3.0143,3.0166,3.0147,3.0148,3.0149,3.015,3.0204,3.0205,0,0,0,0,0,0,3.0083,3.0086,3.012,3.0121,3.0097,3.0111,3.0114,3.0122,3.0132,3.0133,3.0123,3.0123,3.014,3.0142,3.0144,3.0168,3.0149,3.015,3.0151,3.0203,3.0204,3.0205,0,0,0,0,0,0,3.0082,3.0086,3.0119,3.0103,3.0107,3.0113,3.0122,3.0123,3.0128,3.0134,3.0134,3.0128,3.014,3.0142,3.0159,3.0168,3.015,3.0152,3.0202,3.0204,3.0204,3.0216,0,0,0,0,0,0,3.0081,3.0086,3.0094,3.0104,3.0108,3.0135,3.0123,3.0124,3.0131,3.013,3.0138,3.0139,3.0139,3.0157,3.016,3.017,3.0153,3.0202,3.0203,3.0204,3.0215,3.0217,3.0219,0,0,0,0,0,3.0079,3.0097,3.0095,3.0099,3.012,3.0135,3.0138,3.0138,3.0132,3.014,3.0143,3.0139,3.0167,3.0159,3.0162,3.0172,3.0201,3.0203,3.0204,3.0214,3.0217,3.0219,0,0,0,0,0,0,3.0088,3.0098,3.0096,3.0118,3.0126,3.0134,3.0144,3.0142,3.0151,3.015,3.015,3.0152,3.0169,3.0172,3.0163,3.0192,3.0183,3.0185,3.0189,3.0192,3.0194,3.0192,3.0154,0,0,0,0,0,3.0092,3.0105,3.0113,3.0131,3.0135,3.0139,3.0146,3.0146,3.0154,3.0157,3.0162,3.0169,3.0179,3.0186,3.0196,3.0216,3.0216,3.0224,3.0226,3.0228,3.023,3.0239,3.0242,3.021,3.021,3.021,0,0,3.0101,3.0108,3.0116,3.0133,3.0139,3.0151,3.0142,3.0155,3.0164,3.0159,3.0175,3.0178,3.0186,3.0204,3.0212,3.0208,3.0239,3.023,3.0232,3.0232,3.0241,3.0244,3.0247,3.0211,3.0211,3.021,0,0,3.0124,3.0131,3.0146,3.0153,3.0163,3.0165,3.0169,3.0178,3.018,3.0196,3.0192,3.0202,3.022,3.0225,3.0231,3.0255,3.025,3.0258,3.0269,3.0278,3.0281,3.0283,3.029,3.0293,3.026,3.026,3.026,0,3.0133,3.0152,3.0154,3.0168,3.0174,3.0171,3.0185,3.0192,3.0204,3.0208,3.0203,3.0225,3.023,3.0249,3.0255,3.0259,3.0262,3.0256,3.0281,3.0283,3.0285,3.0292,3.0294,3.026,3.026,3.026,3.026,0,3.0163,3.0176,3.0187,3.0199,3.0207,3.0221,3.0224,3.0232,3.0231,3.0234,3.0249,3.0256,3.0266,3.0271,3.027,3.0289,3.0285,3.0281,3.0271,3.0289,3.0295,3.0298,3.0261,3.0261,3.0261,3.0261,0,0,3.0191,3.0204,3.0208,3.0213,3.0223,3.0233,3.0246,3.0257,3.0263,3.0271,3.0281,3.0297,3.0292,3.0298,3.0298,3.0306,3.0323,3.03,3.03,3.0303,3.0342,3.0345,3.0348,3.0321,3.0321,3.0322,3.0341,0,3.0213,3.0237,3.0239,3.026,3.0271,3.0268,3.0279,3.0286,3.0289,3.0298,3.0301,3.0311,3.0305,3.0308,3.0316,3.0319,3.033,3.0318,3.0328,3.0329,3.0325,3.0351,3.0354,3.0372,3.0343,3.0344,3.0344,0,3.0242,3.0251,3.0274,3.0282,3.0286,3.0297,3.0306,3.0316,3.0323,3.0324,3.0331,3.0329,3.0341,3.0332,3.0349,3.034,3.0345,3.0346,3.0347,3.0347,3.0337,3.035,3.0378,3.038,3.0348,3.0348,3.0348,0,3.0257,3.0276,3.0292,3.0296,3.0306,3.0313,3.0318,3.0325,3.0331,3.0339,3.0343,3.0352,3.0357,3.0364,3.0365,3.0358,3.038,3.0372,3.038,3.038,3.0384,3.0384,3.0411,3.039,3.0389,3.0389,3.0389,0,3.0281,3.0294,3.0299,3.0308,3.0323,3.0324,3.0338,3.0342,3.0348,3.0357,3.0356,3.0364,3.0365,3.0373,3.0374,3.0386,3.0389,3.0389,3.0389,3.0389,3.0389,3.0391,3.0389,3.039,3.039,3.039,3.039,0,3.0301,3.0304,3.0321,3.0329,3.0331,3.0342,3.0348,3.0356,3.0359,3.0371,3.0373,3.0377,3.0387,3.0389,3.04,3.0401,3.0415,3.0414,3.0413,3.0412,3.042,3.0419,3.0449,3.0453,3.043,3.043,3.043,0,3.0315,3.0325,3.0334,3.0341,3.0345,3.0356,3.0362,3.0364,3.037,3.0379,3.0386,3.0396,3.0404,3.0419,3.0422,3.0431,3.0429,3.0439,3.043,3.0429,3.0428,3.0427,3.0427,3.0441,3.0441,3.0441,3.0441,0,3.0339,3.034,3.0349,3.036,3.0367,3.0375,3.0383,3.0388,3.039,3.0398,3.0408,3.0414,3.0426,3.0435,3.0443,3.0447,3.0444,3.0444,3.0446,3.0446,3.0444,3.0443,3.0416,3.0443,3.0443,3.0443,3.0443,3.0443,3.0355,3.0363,3.0371,3.0381,3.0387,3.0394,3.0402,3.0406,3.0415,3.0425,3.0426,3.0436,3.0443,3.0454,3.0458,3.0465,3.0462,3.0466,3.0466,3.0467,3.0467,3.0444,3.0467,3.0467,3.0467,3.0467,3.0467,0,3.0377,3.0382,3.0392,3.0402,3.041,3.0408,3.0416,3.0423,3.0433,3.0439,3.0447,3.0458,3.0467,3.0471,3.0479,3.0485,3.0484,3.0487,3.0486,3.0486,3.047,3.0467,3.0487,3.0487,3.0487,3.0487,3.0487,3.0487,3.039,3.0404,3.0406,3.0422,3.0427,3.0438,3.0442,3.0448,3.0453,3.0466,3.0474,3.0477,3.0482,3.0491,3.0498,3.0499,3.0502,3.0505,3.0505,3.049,3.0488,3.0485,3.0482,3.0506,3.0506,3.052,3.0521,3.0521]}]]